User: anonymous   Login
Location: Unspecified
(0.0000°N, 0.0000°E)
Time: 15:10:40
(UTC+00:00)
Language:

AIST 1 - Orbit

View from above orbital plane
View from above orbital plane
View from above satellite
View from above satellite

Ground track
Ground track

The orbit data is extracted from the following two-line orbital elements,

1 39492U 13078C   18143.19379413  .00000141  00000-0  12781-4 0  9999
2 39492  82.4210 217.5342 0019668 353.8010   6.2961 14.87718890238763
Epoch (UTC): 23 May 2018 04:39:03
Eccentricity: 0.0019668
inclination: 82.4210°
perigee height: 591 km
apogee height: 619 km
right ascension of ascending node: 217.5342°
argument of perigee: 353.8010°
revolutions per day: 14.87718890
mean anomaly at epoch: 6.2961°
orbit number at epoch: 23876

The dashed part of the orbit path shows where the satellite is in the earth's shadow,  

DLR